Theta_e
315 315 315 316 315 316 319 321 319 321 321 316 317 318 320 323 323 322 322 322 322 332 338 338 338 337 341 343 343 346 349 349 347 343 343 351 350 349 350 350 351 349 346 338 335 335 335 334 332 332 327 317 312 312 315 318 320 322 324 325 324 319 314 312 312 313 316 324 330 332 335 337 337 337 337 337 337 336 337 337 337 336 336 336 335 335 336 336 336 336 336 335 334 334 332 330 330
315 314 315 315 316 317 321 322 318 318 318 315 317 319 321 322 323 321 322 321 324 336 340 342 342 341 346 348 346 345 350 352 351 351 350 350 349 350 350 350 350 348 344 336 335 335 335 335 333 333 328 319 313 312 314 318 320 322 325 327 328 326 322 318 315 316 319 326 331 334 336 337 336 337 337 337 337 338 338 338 337 337 337 337 337 336 336 336 336 336 334 333 332 332 329 327 328
314 314 315 315 317 318 320 321 317 315 315 314 317 321 322 321 322 322 323 324 333 340 342 344 344 345 346 345 345 345 350 352 350 350 349 349 350 349 350 350 350 348 342 335 337 336 335 335 334 334 330 321 313 312 313 317 320 322 325 327 328 330 329 327 324 324 326 330 334 336 336 336 336 336 337 337 338 338 338 338 337 337 337 337 337 336 336 336 336 335 333 332 329 328 326 325 327
313 314 314 317 319 318 320 320 319 316 314 314 316 321 321 321 321 322 327 333 340 342 343 345 345 348 348 344 346 346 351 352 350 349 349 348 349 350 351 350 349 346 340 337 340 339 335 335 335 334 332 324 316 312 312 316 319 321 324 325 327 329 331 332 332 332 332 335 336 337 336 336 337 337 337 338 337 338 338 338 338 338 338 337 337 336 336 336 336 335 332 329 326 325 324 325 326
313 314 314 316 319 319 321 320 320 317 315 316 316 321 321 321 320 324 334 337 339 340 343 345 345 348 348 349 348 348 352 351 350 348 348 348 349 350 350 349 348 345 340 340 342 340 335 335 336 335 333 327 319 314 312 314 317 320 322 324 326 328 330 332 333 334 335 336 337 337 336 336 337 337 337 337 337 337 337 338 338 337 337 336 336 335 335 335 335 333 330 326 323 323 324 326 327
314 315 315 316 318 319 319 317 317 316 318 320 318 321 321 321 320 327 336 336 338 340 343 344 344 346 348 350 349 351 352 350 350 348 349 348 348 350 350 348 347 344 342 342 342 340 335 336 336 335 334 330 324 317 312 313 316 319 322 324 326 328 330 332 334 335 336 337 337 337 336 336 336 337 337 337 337 337 337 337 336 336 336 336 336 335 333 333 333 330 327 322 320 323 325 326 324
315 317 316 316 318 318 317 315 316 317 320 321 320 321 320 321 321 326 331 332 338 342 343 344 345 345 347 349 349 350 349 350 349 348 349 348 348 349 349 347 346 345 343 342 342 339 335 336 336 336 335 331 328 319 314 312 315 319 322 324 325 328 329 332 334 335 336 336 336 337 336 336 336 336 336 336 336 336 336 335 335 335 334 335 334 331 327 325 325 324 322 318 321 324 325 324 322
315 317 318 317 318 318 316 316 317 319 320 321 320 320 320 321 321 323 324 326 333 338 340 344 344 343 346 349 349 349 348 349 349 349 349 347 348 348 347 346 345 344 342 342 342 339 335 336 336 336 335 333 330 323 315 312 314 317 321 324 325 329 331 332 334 335 335 336 336 336 336 335 336 336 335 335 334 334 334 333 332 332 331 329 326 321 315 313 314 317 316 317 322 324 324 323 322
314 316 318 316 317 317 316 316 317 319 319 320 319 320 320 320 320 320 321 323 325 329 336 341 342 342 345 350 351 349 348 349 349 349 348 347 347 346 345 345 344 343 342 342 341 338 335 336 336 336 335 334 332 327 318 312 313 316 320 324 326 329 331 332 333 335 335 336 336 335 335 335 335 334 333 332 331 330 329 328 327 326 325 322 317 311 309 308 310 312 314 319 323 324 324 323 321
315 316 317 317 316 315 314 315 317 318 319 319 319 319 319 320 319 319 319 320 322 323 332 340 341 343 345 349 350 349 349 349 349 348 348 347 346 345 345 344 344 343 342 342 341 338 336 336 336 336 336 334 333 330 322 314 312 315 319 322 326 329 329 330 333 335 335 336 335 335 335 334 333 332 331 330 329 327 324 323 321 321 319 315 311 309 308 308 308 311 315 320 323 324 325 324 321
317 316 316 317 314 313 313 314 317 318 319 318 319 319 318 318 318 319 318 318 320 321 332 339 338 342 346 349 350 349 349 349 349 349 348 347 346 345 345 345 344 343 343 342 341 339 336 336 336 336 336 335 334 331 326 317 313 313 317 322 326 330 327 327 332 334 335 336 336 335 335 332 331 331 330 329 327 325 321 319 316 315 313 311 310 309 309 308 308 311 315 320 323 325 326 324 322
317 317 316 314 313 314 314 315 317 318 319 317 318 318 318 319 318 319 319 319 319 319 330 337 337 342 345 349 350 348 349 350 350 349 348 347 346 346 345 345 344 343 343 342 342 340 337 336 336 337 336 336 334 333 329 321 316 312 314 319 324 330 328 327 330 331 333 334 335 335 333 330 330 330 330 328 326 323 319 316 313 312 310 309 309 309 309 308 308 310 315 320 322 325 325 325 324
316 318 316 314 315 316 316 316 316 317 317 317 318 318 318 319 320 321 321 320 319 318 327 335 338 341 344 348 349 348 349 350 350 349 349 348 347 347 346 345 344 343 343 342 342 341 338 337 336 336 336 336 335 333 331 325 320 314 312 315 321 328 329 329 330 331 331 332 333 333 332 330 330 330 328 327 326 324 319 315 313 312 310 309 308 308 308 308 308 310 315 319 322 324 325 325 325
315 318 317 315 317 317 316 315 316 316 316 318 318 318 319 318 321 324 324 321 319 319 325 335 338 340 346 349 348 348 349 349 350 349 348 348 347 347 346 346 344 343 343 342 342 342 340 338 337 336 336 336 335 334 332 328 323 318 312 311 319 328 331 331 332 333 332 330 330 331 330 329 328 329 329 328 327 324 320 316 314 313 311 309 308 308 308 308 308 310 313 318 322 324 325 325 326
316 317 317 316 316 316 316 315 316 315 315 319 318 318 318 320 327 330 329 322 318 322 330 337 338 339 345 346 348 348 349 349 349 348 348 348 347 347 346 346 344 344 343 343 342 342 341 340 339 338 338 337 336 335 333 328 323 320 314 310 318 327 330 331 332 333 332 330 331 329 329 328 326 326 327 327 327 325 322 318 315 314 313 310 308 308 308 308 308 310 313 318 321 324 326 326 327
316 317 316 316 315 314 316 316 316 315 316 319 317 318 317 323 333 336 333 324 323 333 337 339 339 342 343 343 347 348 349 349 348 348 348 347 347 347 346 345 344 344 343 342 342 341 342 341 339 339 339 338 337 336 334 329 323 318 312 311 321 328 330 331 332 331 329 330 332 330 330 330 327 327 327 326 324 324 323 320 317 315 314 312 309 308 308 308 308 309 313 317 321 323 326 327 328
315 316 315 315 315 314 316 317 316 315 318 319 317 319 317 321 334 339 334 327 332 339 338 339 343 345 344 346 349 348 349 348 348 348 348 347 346 346 345 344 344 344 343 342 341 341 341 340 339 339 339 338 337 337 337 330 319 316 314 315 323 330 330 330 330 329 330 329 329 329 329 328 328 328 328 326 324 324 324 320 318 316 315 314 310 308 308 308 308 308 312 317 321 324 325 326 327
315 316 315 315 315 316 317 317 317 317 318 319 318 319 318 319 332 341 332 326 335 339 340 343 347 348 349 349 348 348 348 348 348 347 347 346 346 345 344 344 343 343 342 342 341 340 340 339 339 338 338 338 337 336 336 329 321 322 323 324 327 329 327 327 330 330 332 330 327 329 326 323 324 325 323 323 325 326 326 321 318 317 316 316 313 310 308 308 308 308 310 314 321 323 325 328 327
316 317 315 315 317 317 318 317 318 317 318 319 319 319 318 319 331 339 330 326 337 340 343 347 348 349 349 348 347 347 348 347 347 347 346 346 345 344 344 343 343 342 342 341 340 339 339 339 338 338 337 337 336 335 334 331 330 330 329 328 327 327 328 329 331 330 331 330 327 325 321 321 323 322 318 319 321 322 322 320 319 319 316 317 317 314 310 308 308 308 309 313 319 323 327 331 330
316 317 316 317 318 318 317 317 317 317 318 318 319 318 318 328 338 338 331 332 339 339 343 347 348 349 347 346 346 347 347 347 346 346 346 345 344 344 343 343 343 342 341 341 339 338 338 338 338 337 336 335 334 333 332 331 331 331 331 330 327 328 330 330 329 329 329 326 323 321 323 327 327 325 325 326 326 323 322 320 320 321 321 321 319 319 318 312 309 308 308 310 318 326 331 333 333
316 317 317 318 318 317 316 317 316 317 318 318 319 317 322 338 343 338 335 336 338 338 343 345 346 347 347 346 346 347 347 346 346 345 345 344 344 343 343 342 342 341 340 340 339 338 337 337 337 336 334 333 333 332 332 331 331 331 332 330 330 330 331 330 329 328 326 323 325 329 332 334 333 333 333 333 333 331 330 328 325 324 325 324 321 326 326 320 319 317 310 309 319 329 333 332 333
317 318 317 319 319 317 317 318 317 317 318 317 319 317 323 338 343 341 337 335 337 340 344 345 347 347 347 346 346 346 346 345 345 344 343 343 343 342 342 341 341 340 339 339 338 337 336 335 334 333 333 332 333 332 328 329 331 332 331 330 331 332 331 329 328 328 328 330 334 336 336 336 336 336 335 334 335 334 335 335 333 331 330 326 322 327 327 322 327 325 316 311 316 326 331 332 332
317 318 318 319 319 317 318 318 317 318 317 318 319 317 320 328 337 343 337 338 345 345 345 346 347 347 346 346 345 345 345 344 344 343 342 342 342 341 341 341 340 340 339 338 337 336 334 333 332 331 331 330 332 331 325 327 333 333 332 331 332 333 332 330 330 331 333 335 336 336 336 336 336 337 336 335 334 335 336 335 336 335 334 333 326 325 323 322 327 327 322 315 312 321 330 331 331
316 317 318 318 318 318 318 318 317 318 317 318 318 316 318 320 331 342 339 343 348 346 346 346 346 347 346 346 345 344 344 344 344 343 342 342 341 341 340 340 339 338 337 337 336 335 333 333 332 329 328 329 332 332 329 331 334 333 331 332 332 331 332 332 333 334 335 336 336 336 336 335 337 338 337 336 335 334 334 335 336 335 335 336 334 329 326 324 327 327 325 322 320 325 331 332 332
315 315 318 318 318 318 317 317 318 317 318 318 316 319 322 320 330 342 343 346 347 346 346 346 347 347 346 346 345 344 344 344 344 343 342 341 341 341 340 339 338 337 336 336 334 333 333 332 331 328 327 331 334 333 333 334 335 335 334 333 332 330 331 332 333 335 335 336 336 336 336 335 337 338 338 337 336 335 334 334 335 335 334 334 335 334 331 327 327 328 327 328 328 329 331 332 332
315 315 317 318 318 318 318 318 318 318 317 317 319 327 332 331 335 343 347 347 347 347 347 346 347 347 346 346 345 344 344 345 344 343 343 341 340 340 339 338 337 336 335 334 333 333 332 330 332 331 330 333 334 334 335 335 336 336 336 336 335 333 333 334 335 336 336 336 336 335 335 335 335 337 336 335 335 335 335 334 334 334 334 333 333 334 333 331 330 330 329 330 331 330 330 331 332
317 316 317 318 318 318 318 318 318 318 317 317 321 331 339 340 339 343 347 348 346 347 347 345 346 346 346 346 345 344 345 344 344 343 342 342 341 340 339 338 336 336 334 334 334 332 330 331 334 333 332 333 334 335 335 335 336 336 337 337 337 336 336 336 336 336 336 336 335 335 335 334 335 335 335 334 334 334 334 334 334 334 334 334 333 333 333 333 332 332 331 331 330 329 330 331 331
317 316 317 317 317 318 318 318 317 317 318 317 321 333 340 341 341 344 347 347 346 346 346 345 346 345 345 345 345 345 344 344 343 342 342 342 342 341 339 337 336 335 334 334 333 330 331 332 332 332 331 331 334 334 333 334 336 337 337 337 337 337 336 336 336 335 335 335 335 335 335 335 335 335 334 334 333 333 333 332 333 333 333 333 333 333 333 333 333 333 333 332 331 329 328 329 330
316 315 316 316 316 317 317 318 317 318 317 318 324 332 336 339 342 346 346 346 346 345 345 345 345 345 344 344 344 343 343 342 341 340 340 340 342 341 338 337 336 336 334 334 333 331 333 332 330 333 334 333 334 334 334 335 336 337 337 336 336 335 335 336 336 336 335 335 335 335 335 335 334 334 334 334 332 331 330 329 331 331 332 333 333 333 334 334 334 334 334 334 334 333 332 331 331
315 315 315 315 315 315 317 318 317 317 318 323 328 326 331 342 344 345 345 344 344 344 344 344 343 343 342 342 342 342 342 341 339 337 337 338 340 340 338 337 336 336 334 333 333 333 333 332 333 336 336 335 336 336 337 336 336 336 336 335 335 335 335 336 336 335 335 335 335 335 334 334 333 332 333 333 330 328 328 328 329 329 330 332 332 332 333 333 333 334 335 336 335 334 335 336 335
313 314 314 316 314 313 317 317 317 318 320 328 329 323 331 343 339 338 342 343 344 343 343 343 342 342 341 342 341 339 340 339 338 337 337 337 339 339 338 337 336 334 332 332 333 331 331 334 336 338 337 337 337 337 337 336 336 336 336 336 335 335 335 335 336 336 335 335 335 335 334 333 333 332 332 332 329 327 329 329 329 329 330 330 330 331 330 331 331 332 333 334 334 334 335 337 336
313 313 313 315 314 314 317 317 317 318 322 330 329 324 334 342 335 334 341 343 342 341 340 340 340 340 339 339 338 337 337 338 337 337 338 339 339 339 337 337 337 332 330 330 331 332 335 338 338 338 338 338 337 337 337 336 335 335 335 335 335 335 334 335 335 335 335 335 335 335 334 334 335 334 333 333 331 329 329 329 330 330 330 329 330 331 330 330 331 331 331 332 331 332 333 334 334
314 313 313 313 314 314 315 316 317 318 323 328 325 324 335 340 334 336 341 340 339 339 338 337 336 336 335 336 337 337 337 338 336 336 340 341 339 339 337 338 338 333 331 331 332 335 338 339 339 339 338 337 336 336 336 335 334 335 335 335 335 335 335 335 335 335 335 335 335 335 335 335 335 335 335 334 334 332 331 330 330 331 330 329 330 331 330 330 330 331 331 332 331 331 331 332 332
313 313 314 314 314 315 314 314 317 320 322 324 325 330 338 339 337 338 340 338 338 339 338 338 337 335 334 336 337 336 337 338 338 338 341 341 340 340 338 338 338 336 336 336 336 338 339 339 340 339 338 336 336 336 335 335 335 336 335 335 335 336 336 335 335 336 336 336 337 336 335 335 334 335 334 334 334 332 331 331 330 330 330 330 330 331 330 331 331 331 331 332 332 332 332 332 332
313 313 314 315 315 314 314 315 317 320 322 324 330 336 339 339 339 340 337 334 335 338 338 338 338 337 337 338 338 338 339 339 339 340 340 340 340 341 339 339 339 338 339 339 338 338 339 339 339 338 337 336 335 335 335 335 335 335 335 336 335 336 336 336 336 336 336 336 337 336 335 334 334 334 333 333 333 333 332 331 331 331 331 330 331 331 330 330 331 331 332 332 332 332 332 332 332
315 314 314 315 313 314 316 318 321 321 321 326 330 334 338 337 337 339 335 331 333 337 338 338 338 338 338 335 334 337 340 339 341 341 340 340 340 341 340 340 340 339 339 339 338 338 339 339 338 338 337 336 335 334 335 335 336 335 336 336 336 336 336 335 335 335 335 335 335 334 334 334 334 334 333 333 333 333 332 332 331 331 331 331 331 330 331 331 331 331 331 332 331 331 331 331 331
316 315 314 315 313 315 318 320 325 326 323 328 330 333 335 334 335 338 335 333 336 338 338 338 337 336 335 335 335 337 339 338 339 340 341 341 340 340 340 340 341 340 339 338 338 337 338 338 337 338 337 336 336 336 336 336 337 337 336 336 336 336 336 336 335 335 335 334 333 332 332 333 333 333 333 333 333 333 332 332 332 332 331 331 331 331 331 331 331 331 332 332 331 331 331 331 331
316 315 314 314 314 317 321 321 325 327 327 331 333 332 333 333 335 337 337 336 337 338 337 337 337 336 335 337 337 336 336 336 336 335 336 337 338 339 339 340 340 339 338 338 337 337 337 337 337 337 336 336 336 337 337 336 337 337 336 336 336 336 336 336 336 335 334 334 333 332 331 331 331 331 332 332 332 332 332 332 332 331 331 331 331 331 331 331 331 331 331 331 331 330 331 331 330
315 315 314 313 316 320 322 322 323 323 326 330 332 333 334 334 334 336 338 338 338 338 338 337 337 337 336 335 335 335 335 334 334 333 333 334 336 337 338 338 338 338 338 338 337 337 337 336 336 336 336 336 336 336 336 336 336 336 336 336 334 334 335 334 334 334 333 333 332 331 330 330 330 330 330 331 331 331 331 332 331 330 330 330 330 330 330 330 330 330 331 330 330 330 330 329 329
314 315 313 313 317 318 318 321 324 324 326 330 332 334 335 335 334 336 337 337 338 338 337 337 337 336 336 335 335 335 335 333 333 333 334 334 334 335 337 336 337 338 338 337 337 337 337 337 337 337 336 336 336 335 335 335 334 333 333 333 332 333 333 333 333 332 332 331 330 329 329 328 328 328 328 329 329 329 329 330 329 330 329 328 328 329 328 329 329 330 330 329 329 330 330 329 329
315 315 314 314 316 317 318 322 325 325 328 331 331 330 333 335 335 336 335 335 337 337 337 336 336 336 335 334 333 333 333 332 333 334 333 333 333 334 336 335 336 337 336 336 337 337 336 336 336 336 336 335 335 334 334 335 334 333 332 332 332 333 333 333 332 331 331 329 328 328 328 328 327 327 327 327 326 326 326 327 327 327 326 326 326 326 326 327 328 328 328 328 328 329 329 329 328
314 315 315 314 316 320 323 323 322 324 327 330 326 322 327 334 335 335 335 335 336 336 337 336 335 335 335 334 332 333 333 332 333 334 334 334 334 334 334 335 335 335 335 336 336 336 336 335 334 334 335 335 334 334 334 334 334 334 333 333 333 333 332 331 330 330 329 328 328 328 328 328 327 327 327 326 325 325 326 326 326 325 324 323 324 324 324 325 325 325 325 325 326 327 327 328 329
313 314 314 316 320 321 322 322 320 320 322 329 325 320 327 334 334 335 335 334 335 335 335 336 335 335 336 334 332 332 332 332 332 334 334 333 334 335 335 335 335 334 335 336 335 335 335 334 334 333 334 334 333 333 333 332 333 333 333 332 332 332 331 329 329 328 328 327 328 328 327 327 326 326 326 324 324 325 325 325 325 325 323 322 322 322 322 322 321 321 321 320 321 322 324 326 327
313 314 313 316 321 321 321 320 319 318 321 327 327 322 327 331 333 335 335 334 335 335 334 335 335 335 336 335 333 333 332 332 332 334 334 333 334 335 335 335 335 334 334 334 333 334 334 334 333 333 333 332 331 332 331 331 331 331 331 330 330 329 329 328 328 327 327 328 327 326 326 325 325 325 324 323 323 323 324 323 323 322 322 320 319 318 317 317 316 316 316 315 315 317 320 322 322
314 314 314 316 319 321 320 318 317 320 322 323 323 321 321 324 330 334 334 334 335 335 334 334 335 335 335 334 333 333 332 332 333 334 334 333 333 334 334 334 334 334 333 333 333 334 334 334 333 332 331 330 330 330 330 329 330 330 330 329 328 328 327 326 326 326 326 326 326 325 324 323 322 322 322 321 321 321 321 320 319 318 317 315 314 313 313 312 313 313 312 312 312 313 316 318 318
314 314 314 316 317 319 318 318 318 320 321 319 320 320 316 320 330 333 332 334 334 334 334 334 334 334 334 333 331 332 332 331 332 333 333 332 332 333 334 334 334 333 333 333 332 333 332 331 331 330 329 329 329 329 329 328 328 329 328 328 327 326 325 325 324 324 323 323 322 322 321 319 318 318 317 317 316 316 315 315 314 313 312 312 312 312 311 311 311 312 311 311 312 312 313 314 313
314 314 315 315 316 317 317 318 318 318 317 316 319 320 315 320 330 332 331 333 333 333 334 333 333 333 333 333 331 330 331 330 331 332 332 332 332 333 333 333 332 332 332 332 331 330 329 328 328 328 328 328 329 328 328 327 327 326 325 325 325 324 324 323 322 322 321 320 319 318 317 316 314 314 314 313 313 312 312 311 311 311 311 311 311 311 311 311 311 311 311 311 311 311 311 312 311
313 314 314 314 314 315 315 316 317 316 314 314 318 321 317 317 325 329 330 331 331 332 333 332 332 333 333 332 330 329 329 329 329 331 332 332 332 332 332 332 332 332 332 331 330 328 327 326 326 326 326 327 327 327 326 325 325 324 324 323 322 322 322 321 320 319 318 317 316 315 315 313 312 312 312 311 311 311 311 311 310 310 310 310 310 310 310 310 310 310 310 310 310 310 310 311 311
313 313 313 313 313 314 314 314 315 314 314 315 317 320 318 316 321 328 330 330 331 332 333 333 333 333 333 331 330 328 328 327 329 330 331 331 332 332 331 331 331 330 330 328 327 326 325 325 324 324 324 324 325 326 325 324 323 322 321 321 320 320 319 317 317 316 315 314 313 313 313 312 311 311 310 310 310 310 310 310 310 309 309 309 309 308 308 308 308 308 308 307 308 308 308 309 309
311 312 313 312 312 314 315 314 314 313 314 317 318 320 317 316 323 330 329 330 332 333 333 334 334 333 332 330 329 327 327 327 328 329 329 330 331 331 330 330 329 328 327 325 324 324 323 323 322 322 322 322 323 323 323 322 321 320 320 319 318 317 316 314 314 313 312 312 311 311 311 310 310 310 310 310 310 309 309 308 308 307 307 306 306 305 305 305 305 305 305 305 305 305 305 305 306
311 312 314 313 313 314 314 314 313 313 315 318 319 319 316 317 325 330 330 331 332 333 333 334 333 332 330 328 327 326 326 326 327 327 328 328 329 328 329 328 327 325 324 323 322 321 321 320 320 320 321 321 321 321 321 320 319 319 318 317 315 314 313 312 312 312 311 311 310 310 310 310 310 309 309 309 308 308 307 306 305 305 304 303 302 302 302 301 301 301 301 301 301 301 302 302 302
312 313 313 312 314 314 313 315 316 314 316 319 320 319 319 324 327 329 331 332 331 333 334 333 333 330 328 327 327 327 326 326 326 327 327 326 326 325 326 325 324 323 322 321 320 319 319 319 319 319 319 319 319 319 319 319 318 317 317 315 313 312 311 311 311 311 310 310 310 310 309 309 308 308 307 307 306 305 304 303 302 301 301 300 299 299 299 299 298 298 298 298 298 298 298 299 299
312 311 311 313 316 315 313 315 318 317 317 319 319 319 322 326 327 328 329 330 330 332 333 333 331 329 328 328 328 327 327 326 327 327 326 325 324 323 323 323 322 322 321 320 320 319 319 318 318 318 317 317 317 317 317 316 315 315 314 313 311 311 310 310 310 310 310 309 309 309 308 307 307 306 305 304 303 302 301 300 299 298 298 297 297 297 297 297 297 297 297 297 297 297 297 297 297
312 311 312 314 315 316 314 313 316 316 315 318 319 318 320 320 324 329 329 329 330 331 332 332 330 329 329 329 328 327 326 326 326 326 325 324 323 323 322 321 321 320 320 319 319 318 318 317 317 316 316 315 315 314 314 313 312 312 311 311 310 310 310 310 310 309 309 308 307 306 306 305 304 303 302 301 300 299 298 297 297 297 297 296 296 296 296 296 296 296 296 296 296 296 296 295 295
312 312 313 314 313 313 314 313 315 314 314 318 319 318 318 317 323 330 330 328 331 331 331 331 329 329 329 328 327 327 326 325 325 324 324 324 323 322 321 320 320 319 318 318 317 317 317 316 316 315 315 314 313 312 312 311 310 310 310 309 309 309 309 308 308 307 306 306 305 304 303 302 301 300 299 298 298 297 297 296 296 296 296 296 296 296 296 296 296 296 295 295 295 295 295 295 295
312 313 313 313 313 313 313 314 315 313 313 317 320 319 319 318 325 330 329 329 331 330 330 330 329 329 329 328 327 326 326 325 324 323 323 323 322 321 320 319 319 318 317 317 317 316 316 316 315 315 314 313 312 311 310 310 309 309 309 309 309 308 307 306 306 305 304 303 302 301 300 299 299 298 297 297 297 296 296 296 296 296 296 296 295 295 295 295 295 295 295 295 295 295 295 295 295
310 311 312 312 313 313 314 314 313 313 313 315 321 323 319 319 326 329 329 330 331 330 330 330 330 329 329 327 326 326 326 325 324 323 322 322 321 320 319 319 318 317 317 317 316 316 315 315 315 313 313 312 311 310 309 309 308 308 308 308 307 306 305 304 304 303 302 301 299 298 298 297 297 297 297 296 296 296 295 295 295 295 295 295 295 295 295 295 295 295 295 295 295 295 295 295 295
311 311 311 312 313 312 313 314 313 313 312 313 319 319 318 322 328 328 329 331 331 331 331 330 331 330 328 327 326 326 325 324 324 323 322 322 320 319 319 318 317 317 316 316 315 315 315 314 313 313 312 311 309 309 308 308 307 307 307 306 305 304 303 302 301 300 299 298 297 297 297 296 296 296 296 295 295 295 295 295 295 295 295 295 295 295 295 295 295 295 295 295 294 295 295 295 295
Wind_Speed
10 8 7 7 6 7 5 5 7 4 3 8 8 8 7 5 5 9 8 4 5 1 3 5 4 5 4 4 3 2 9 7 5 2 1 6 11 16 18 19 22 21 21 24 22 20 18 15 12 9 8 8 10 10 11 12 12 12 13 13 13 13 14 14 15 15 14 14 15 14 14 13 13 12 12 13 12 12 12 12 11 10 10 9 9 9 9 8 8 8 9 9 8 8 8 8 8
10 8 6 5 4 6 4 2 7 6 5 8 6 7 9 8 8 12 6 4 4 2 1 2 3 6 5 5 4 3 6 11 9 9 9 11 14 15 17 20 21 21 23 25 22 20 18 15 13 9 8 8 10 11 11 12 12 12 12 12 13 13 13 14 14 14 14 14 14 13 13 12 12 12 12 12 12 12 12 11 10 10 9 9 10 9 8 7 8 9 8 7 7 7 7 7 7
10 8 5 4 3 5 4 3 7 8 8 9 6 4 6 9 11 10 4 2 2 4 2 3 4 5 5 7 4 2 4 9 10 13 14 13 14 15 18 21 20 20 24 25 21 20 19 16 13 10 8 8 9 10 11 12 12 12 11 12 12 12 13 13 13 13 13 13 13 12 12 12 12 11 11 11 11 11 11 10 10 10 9 9 9 8 7 6 8 8 6 6 6 6 6 6 7
8 7 4 4 5 5 5 5 6 8 9 8 7 3 5 11 11 7 2 3 6 5 4 5 4 3 5 4 2 1 6 8 9 12 15 13 13 18 19 20 19 19 24 24 18 18 20 17 14 11 8 7 8 9 10 12 12 11 11 11 11 12 12 12 12 12 12 13 12 12 12 12 11 11 11 11 10 10 9 9 9 9 9 9 8 7 6 7 7 5 5 5 5 5 5 6 6
6 5 5 5 6 4 4 5 5 8 9 8 8 4 6 11 9 3 4 6 5 3 4 7 4 4 3 3 2 1 7 8 9 11 15 14 15 20 19 19 18 19 22 21 16 17 20 18 14 12 8 7 7 8 9 11 11 10 10 10 10 11 11 12 11 12 12 12 12 11 12 11 11 10 10 10 9 9 9 8 8 8 8 7 7 6 5 5 4 4 5 5 5 5 7 7 7
3 3 4 6 6 3 5 7 7 9 10 10 9 8 8 9 5 1 4 4 4 3 4 7 4 5 5 3 4 3 6 7 10 11 14 16 18 21 19 18 18 19 20 18 15 16 21 18 15 12 9 8 7 7 9 10 11 10 10 10 10 10 11 11 11 12 12 11 11 11 11 11 10 10 10 9 9 8 8 7 7 7 7 7 6 5 3 2 2 3 4 5 6 7 8 8 8
5 5 5 6 5 4 8 10 10 10 9 9 9 10 7 3 1 3 5 4 5 5 5 6 6 5 5 6 5 5 4 8 10 11 14 17 19 20 19 18 19 19 18 16 13 17 21 18 15 12 10 8 7 7 8 9 10 11 10 10 10 10 10 11 12 12 12 11 11 11 10 10 9 9 9 8 8 8 7 6 5 5 5 5 3 2 0 1 1 2 3 5 7 9 9 9 9
7 6 5 6 5 5 8 10 11 11 6 5 7 9 4 3 3 4 6 6 5 5 5 5 9 7 5 6 4 5 6 9 10 13 16 18 20 20 19 17 18 19 18 16 14 18 20 17 15 12 10 8 7 7 8 9 10 11 10 10 10 10 11 12 12 12 12 11 10 10 9 9 9 9 8 8 7 6 5 4 3 2 1 1 0 1 1 1 1 2 5 7 9 10 10 10 10
7 6 5 6 7 6 8 10 10 10 8 6 7 8 6 5 5 7 8 8 6 5 6 6 10 9 7 8 6 9 8 9 12 15 17 18 19 18 17 16 17 18 18 16 15 19 20 17 15 12 10 8 7 7 7 8 9 11 11 10 10 11 12 12 13 12 12 11 10 10 10 9 8 8 7 7 6 5 4 2 2 1 0 0 1 2 2 3 3 5 8 9 10 10 11 10 10
8 8 6 5 7 9 9 9 9 8 9 8 7 8 8 7 8 11 11 12 9 8 8 7 8 8 9 10 10 10 9 12 15 16 18 18 19 18 17 16 16 18 17 16 16 18 20 17 14 12 10 8 7 7 7 8 9 10 11 11 11 11 12 12 12 12 12 11 10 10 9 8 8 8 7 7 6 4 3 2 1 1 1 1 2 3 4 3 5 7 10 11 10 11 11 11 10
8 7 6 6 8 9 9 9 8 7 6 5 6 9 9 8 9 11 12 14 12 11 10 8 9 9 10 10 10 9 11 14 16 17 18 18 18 17 16 15 16 17 16 16 15 16 19 17 14 12 10 8 7 7 7 7 8 9 10 11 12 12 11 11 12 12 11 10 9 9 8 7 7 7 7 6 5 4 3 3 3 2 2 2 3 4 4 3 5 7 10 11 11 11 11 11 11
8 6 6 7 8 8 9 9 8 6 4 5 6 6 5 6 7 10 12 13 14 14 14 11 9 12 10 8 10 11 13 15 16 17 18 18 17 17 15 14 15 16 15 15 14 14 16 16 15 12 10 8 7 7 6 7 7 8 10 11 12 11 10 11 11 11 10 9 7 7 7 6 7 7 6 5 5 4 4 4 3 3 2 2 2 3 3 3 4 6 9 10 11 11 11 11 10
9 6 6 7 7 7 8 8 7 6 6 5 4 5 4 4 7 10 12 13 16 16 16 15 10 12 9 10 12 12 15 15 16 18 18 18 17 16 14 13 15 15 14 14 13 13 13 14 15 13 11 10 9 8 7 7 7 8 9 10 11 11 10 10 10 9 9 8 7 6 5 5 5 5 5 5 4 4 4 3 3 3 3 2 3 4 4 3 3 5 7 8 10 10 10 10 9
10 7 7 6 6 7 7 8 6 6 6 4 6 6 2 5 6 8 11 12 15 16 14 14 13 13 9 10 11 15 17 16 18 18 18 17 15 15 14 14 14 14 13 13 13 12 11 12 12 12 12 11 10 9 8 8 7 7 7 9 11 11 11 10 10 9 8 7 6 5 4 3 4 5 4 4 4 4 3 3 3 3 3 3 3 3 4 3 3 4 5 6 7 8 9 9 9
9 8 6 6 6 7 7 8 6 6 4 8 8 3 3 5 5 8 11 12 12 14 11 13 15 10 10 11 11 19 19 19 20 18 17 16 15 14 14 14 14 14 13 13 13 12 11 11 10 10 10 9 9 9 9 8 7 7 7 9 11 11 11 10 10 9 7 7 6 4 4 3 3 4 3 3 3 3 3 3 3 3 3 3 3 3 3 3 3 3 4 4 5 6 6 7 7
9 7 6 6 7 7 7 7 6 6 3 9 7 2 5 4 4 8 10 11 8 12 10 13 15 5 8 13 14 23 21 20 22 19 18 17 15 14 14 14 14 14 13 14 13 12 11 10 10 10 9 8 8 8 8 8 7 7 8 11 12 11 10 10 10 8 7 6 5 4 5 5 3 3 4 2 2 3 3 3 3 3 3 2 2 2 2 2 3 3 4 4 3 3 3 5 5
9 7 7 6 8 8 6 8 6 3 4 9 5 2 6 4 4 6 6 10 8 12 12 11 11 2 4 11 21 26 23 23 22 19 18 16 15 14 15 15 14 14 13 14 13 12 11 11 11 10 10 10 9 7 7 7 7 7 9 11 13 11 10 10 9 7 5 4 4 4 4 4 3 4 4 2 2 4 2 2 3 3 3 2 2 2 1 2 2 3 4 5 4 2 1 2 3
10 7 7 7 9 8 5 8 5 1 4 6 2 3 6 7 3 4 6 10 10 13 12 10 10 7 10 18 25 25 23 23 21 19 18 15 14 15 15 14 14 14 14 13 12 12 11 11 11 10 11 11 10 7 6 7 8 8 9 11 11 10 10 9 7 5 4 2 3 3 3 3 2 3 4 3 4 5 2 2 3 2 3 2 2 1 1 1 1 3 5 5 5 4 1 1 1
11 6 7 9 7 3 3 5 4 3 2 1 3 3 6 9 4 6 9 13 14 13 12 12 12 14 16 21 23 23 23 22 20 18 18 15 15 16 15 14 13 14 14 13 12 12 11 10 11 11 11 9 8 7 6 7 7 8 8 8 8 8 10 9 6 6 5 4 4 4 4 5 5 5 6 6 5 4 2 3 3 2 2 2 2 2 1 1 1 3 5 6 6 4 1 1 1
13 9 7 8 5 3 4 5 4 3 3 5 4 6 8 6 3 7 9 12 14 13 13 15 16 17 19 21 22 23 23 21 19 18 17 17 16 17 15 14 13 13 14 13 13 13 11 11 11 10 9 8 7 7 7 7 8 8 8 7 6 7 8 8 8 8 6 5 6 6 7 6 6 7 6 6 5 4 3 0 1 2 2 2 1 2 1 1 0 1 4 6 7 3 2 2 2
11 10 8 5 4 5 6 6 6 3 4 6 5 8 7 1 3 6 9 11 12 12 13 13 16 20 21 23 23 24 24 21 19 18 18 17 17 16 15 14 13 13 14 12 12 12 12 11 10 8 7 7 7 7 7 8 8 8 8 7 7 6 7 7 7 6 6 7 8 7 6 4 4 4 3 3 2 1 2 2 2 1 0 1 1 1 0 1 1 1 2 5 7 5 4 4 4
8 11 12 5 3 6 5 6 5 3 4 5 6 7 4 1 4 6 10 10 6 7 10 8 12 19 21 23 23 24 23 21 20 19 19 18 18 17 15 14 13 14 13 11 11 11 11 10 8 8 7 7 7 7 7 8 9 8 9 8 7 7 6 7 7 7 8 8 7 5 4 3 3 3 3 3 2 2 1 0 2 2 3 2 0 1 1 1 1 1 2 4 7 8 6 5 5
8 10 13 9 6 5 3 4 3 3 5 6 6 6 5 5 5 6 10 7 4 1 6 8 13 19 21 22 23 24 23 22 20 20 20 19 18 17 16 15 14 13 12 11 11 10 10 9 8 8 8 8 7 8 8 9 9 8 9 9 8 7 7 8 8 8 7 6 5 4 4 4 3 2 2 2 1 1 1 1 1 1 2 3 2 2 2 1 1 0 2 3 6 8 7 7 6
12 8 9 11 11 8 6 5 5 5 7 7 7 7 8 8 5 7 10 6 6 2 7 11 17 20 21 22 23 24 23 21 19 19 20 19 17 17 16 15 14 13 12 11 10 9 9 9 9 9 8 9 8 8 9 9 9 9 9 8 7 8 8 8 8 7 6 5 4 4 3 3 2 2 1 1 1 0 1 1 1 1 1 2 3 2 2 2 2 2 2 2 4 6 8 8 7
15 11 6 9 10 9 9 8 7 7 7 7 8 8 8 8 5 7 8 6 5 6 12 16 19 21 21 22 23 23 22 19 18 18 18 18 17 16 16 15 14 13 12 12 11 10 10 10 9 9 10 10 10 9 10 10 10 9 8 7 7 8 8 7 6 6 4 4 3 3 2 2 1 1 0 0 1 2 2 1 1 2 2 2 3 3 2 2 2 3 3 2 4 6 8 9 8
14 16 9 7 9 8 8 8 8 7 7 6 6 6 4 4 7 7 6 6 8 11 16 19 21 22 21 22 22 20 19 17 17 17 17 18 17 16 16 14 13 13 13 12 11 10 10 11 10 10 11 11 11 10 9 10 9 9 8 7 6 6 6 6 5 4 3 3 2 2 1 0 1 1 1 1 2 2 2 1 2 2 3 2 3 4 3 3 3 4 4 3 4 5 7 9 10
7 16 13 9 10 8 7 8 8 6 6 7 7 3 3 7 8 5 6 7 10 15 17 20 23 23 23 23 20 18 17 16 16 16 16 17 16 16 15 14 14 14 14 13 12 11 11 11 11 12 12 12 11 10 10 10 9 8 8 7 6 5 5 5 4 3 2 2 1 1 1 1 2 3 3 3 2 2 2 1 1 2 3 3 2 3 3 3 3 4 5 5 6 6 8 9 10
3 9 12 12 12 10 9 9 9 7 6 8 8 4 7 7 5 6 9 9 12 17 19 20 22 22 23 21 18 17 15 13 14 15 16 16 14 14 15 15 15 15 14 13 12 13 13 13 14 13 12 12 10 9 10 10 8 7 7 6 6 5 5 4 3 3 2 1 1 1 1 2 3 4 4 4 2 2 2 2 2 1 2 3 2 3 3 4 4 5 6 7 7 8 9 10 11
5 6 7 10 11 11 13 12 10 8 6 7 10 8 8 7 6 10 12 12 15 18 19 20 20 20 21 21 20 18 16 15 14 13 13 12 10 12 14 14 15 14 13 13 13 14 14 15 15 13 11 11 10 8 8 8 7 6 6 5 5 5 5 4 3 2 2 1 1 1 2 3 4 4 4 3 1 1 2 2 2 2 2 2 3 3 4 4 4 5 6 7 8 9 9 10 11
8 7 6 6 9 10 14 14 10 9 6 9 12 8 7 7 8 10 13 17 19 19 19 20 19 18 18 20 20 18 15 16 15 10 8 8 8 10 13 14 14 14 13 13 13 15 15 14 14 13 12 12 10 9 8 7 7 6 5 5 5 5 5 4 3 2 2 1 1 1 2 4 4 6 6 3 0 0 2 3 4 3 2 2 4 4 4 5 5 5 5 6 8 9 9 10 11
8 8 6 5 6 8 13 14 12 9 6 11 13 7 6 7 6 6 13 18 19 19 18 18 17 15 16 17 16 14 12 14 14 10 7 8 8 10 13 13 13 13 14 14 14 15 15 14 13 12 12 11 10 9 8 8 7 7 6 5 5 5 4 4 3 2 2 1 1 2 3 3 4 5 6 5 2 2 3 5 5 5 5 4 5 6 6 7 7 7 7 8 9 9 9 10 11
9 8 7 7 6 7 12 11 11 9 6 11 12 4 7 7 5 7 14 18 18 19 18 18 19 15 13 13 12 12 11 11 15 12 9 10 10 11 13 14 12 13 14 14 14 15 14 14 14 13 11 11 10 9 9 8 7 7 6 6 5 5 4 3 3 2 1 1 2 2 2 3 4 4 5 5 3 3 4 5 5 6 6 7 6 7 9 9 9 9 9 10 11 11 11 12 12
9 9 7 9 9 7 10 9 8 7 7 11 11 4 7 7 8 11 14 19 21 21 19 20 23 20 14 12 12 11 8 9 14 14 11 11 11 11 12 14 14 15 16 15 15 15 14 14 13 12 12 11 9 9 9 8 7 7 6 6 5 5 4 3 2 0 1 1 2 1 2 3 4 4 5 5 4 4 4 4 5 6 7 8 7 7 9 10 10 11 10 11 12 13 13 14 14
8 9 7 9 12 9 9 9 9 9 9 11 8 4 8 10 13 15 15 17 17 17 19 19 20 22 19 15 13 11 7 7 11 15 14 11 10 10 12 16 17 16 17 16 16 15 15 14 12 11 11 10 10 9 8 8 8 7 5 5 5 4 3 2 1 1 1 1 2 2 3 3 3 3 4 4 4 4 4 4 5 6 6 7 7 7 8 8 9 10 11 12 13 13 14 15 16
11 11 8 8 11 10 9 9 9 11 11 10 8 8 10 11 14 15 15 15 12 11 16 18 16 18 19 16 15 12 8 7 8 11 13 12 12 11 13 16 17 17 17 16 16 15 14 13 11 10 10 10 10 9 9 8 7 6 5 4 4 4 3 2 1 0 1 2 2 3 3 3 3 2 3 3 3 3 3 3 5 5 5 5 5 6 7 7 8 9 9 11 12 12 13 15 15
13 14 10 8 10 8 6 9 8 10 12 11 10 10 11 12 12 14 14 14 15 14 14 15 15 16 17 17 15 11 7 6 6 9 12 14 14 13 13 16 17 18 17 16 15 14 12 11 11 11 11 10 10 9 9 8 6 6 5 5 4 4 3 1 0 1 1 1 1 2 3 3 3 2 3 2 1 1 1 2 3 3 3 4 5 6 7 7 8 8 8 9 10 11 11 12 12
12 13 11 9 10 7 8 10 7 7 10 9 9 10 11 12 11 12 14 14 15 16 15 15 14 14 15 16 16 13 10 7 7 8 12 14 15 14 14 16 17 17 17 17 16 14 12 11 12 12 11 10 9 9 8 8 7 6 5 5 4 3 1 1 1 2 1 2 4 3 2 2 2 2 3 2 1 1 2 2 2 2 3 4 5 6 6 7 8 9 8 9 10 11 9 9 11
10 11 11 9 8 8 9 10 7 6 7 7 9 10 10 11 10 11 13 13 14 16 16 16 16 15 14 16 17 16 15 14 11 9 8 12 12 14 15 14 16 17 17 17 16 14 13 12 12 12 12 11 10 9 8 7 7 6 5 4 4 4 3 3 3 3 2 2 3 4 5 4 3 3 3 3 3 4 5 6 5 5 6 6 7 8 8 8 8 8 8 9 10 10 10 10 10
7 8 10 8 8 10 9 9 9 8 7 8 10 9 8 9 9 10 12 11 12 14 16 17 18 17 15 15 16 16 16 16 13 10 8 9 8 10 12 13 16 16 16 16 15 14 13 13 13 13 13 11 10 9 7 6 5 5 5 4 4 4 3 2 2 2 1 2 3 4 5 4 4 4 3 4 4 3 4 6 7 7 9 8 7 8 9 9 9 9 8 9 9 10 11 11 10
7 8 9 8 10 10 7 9 10 8 7 11 13 9 7 8 8 9 10 9 9 12 16 16 17 16 16 17 17 17 16 14 11 9 10 10 8 10 11 11 15 14 13 14 13 13 13 13 13 13 12 11 9 8 7 5 4 3 3 3 3 3 4 5 4 2 2 3 4 4 3 5 6 5 4 4 3 4 3 3 5 5 7 8 6 7 7 7 7 8 9 9 9 9 10 11 10
8 8 8 9 11 9 7 11 11 9 9 13 14 8 5 7 8 7 8 9 10 12 16 15 14 15 17 19 18 18 17 12 10 11 11 9 9 10 9 8 12 13 12 14 14 14 14 14 13 12 11 10 9 8 7 6 4 4 4 3 4 5 6 6 4 3 3 3 5 4 4 5 7 6 7 8 7 8 7 6 6 6 8 9 7 7 7 6 5 6 7 7 7 7 9 11 11
8 7 5 6 12 10 13 16 13 9 9 13 13 8 6 8 8 8 7 9 10 12 15 15 14 15 17 18 18 19 17 14 12 12 12 10 8 10 10 9 11 13 14 16 17 16 15 13 12 10 9 9 8 8 6 5 5 5 5 4 3 4 5 3 2 2 1 4 5 4 4 6 7 7 9 11 10 8 8 9 10 11 12 12 11 10 10 9 8 8 8 9 8 8 8 10 10
7 9 4 6 12 14 16 16 12 8 8 12 12 8 5 7 9 11 10 10 11 11 13 16 16 16 15 16 17 18 18 19 18 16 16 13 11 15 15 12 12 13 15 15 15 14 12 12 11 9 8 8 8 7 6 5 4 3 3 2 2 3 3 3 3 2 2 4 3 4 6 8 8 8 9 9 7 6 8 9 10 11 13 14 13 12 11 11 12 12 12 13 13 11 9 10 11
5 12 10 7 11 14 14 13 10 7 8 11 11 9 6 6 9 12 12 10 10 11 12 15 17 17 14 15 16 16 18 22 23 21 20 16 14 18 17 15 15 14 14 13 12 12 10 10 10 9 7 6 6 7 5 3 2 2 2 2 2 3 2 4 4 2 3 3 3 5 8 10 9 8 8 7 7 7 8 9 10 11 12 12 12 12 12 12 13 13 13 13 13 11 9 10 12
6 12 12 9 9 11 11 10 7 6 8 9 10 10 8 7 9 10 11 11 10 13 14 15 18 18 15 15 16 14 15 19 24 25 22 18 16 17 14 14 16 15 14 13 13 13 12 11 10 8 7 5 6 7 6 4 1 1 1 1 2 2 1 2 2 1 2 3 4 6 7 7 6 5 5 5 6 7 7 9 10 10 11 12 12 12 12 12 12 12 12 13 13 12 10 9 11
8 12 11 8 7 7 8 7 6 7 8 10 12 12 10 7 9 10 11 12 12 13 14 15 19 21 18 17 17 15 14 17 22 24 21 17 16 17 16 16 16 15 14 12 11 12 13 12 10 8 5 4 6 7 8 7 3 1 2 1 1 2 2 2 1 1 0 1 1 2 3 2 4 5 5 6 6 7 8 9 10 10 11 12 12 12 12 12 12 13 13 13 13 13 12 11 12
10 11 10 8 7 6 5 5 4 7 8 10 14 15 12 7 8 10 10 12 15 14 13 15 19 21 20 18 17 17 16 16 19 23 23 21 18 17 16 15 15 14 13 11 11 11 11 11 9 6 3 3 5 6 7 5 3 2 1 1 1 2 3 3 2 2 2 2 2 2 3 4 6 7 7 8 8 9 9 10 11 12 12 13 13 14 14 15 15 15 14 14 14 14 13 13 13
10 10 9 8 7 5 5 5 4 7 8 9 14 15 12 9 7 11 12 12 16 17 16 18 21 23 22 19 18 17 15 16 21 26 26 24 22 20 16 14 15 14 13 12 12 10 9 9 7 4 3 3 4 5 4 3 3 3 3 3 2 1 1 1 2 2 2 3 3 4 5 6 8 8 8 8 9 10 11 12 13 14 15 15 16 17 17 16 16 16 16 15 15 15 14 14 13
11 11 10 9 8 7 8 8 7 8 5 5 11 13 10 7 5 12 16 14 15 17 18 20 23 25 23 21 18 16 15 18 23 26 24 23 23 21 18 18 17 16 14 12 11 9 7 7 5 3 3 3 2 3 3 3 3 3 3 2 1 1 1 1 3 3 5 5 5 7 7 7 8 8 9 10 12 13 14 14 15 16 16 17 17 17 17 17 17 16 16 16 15 15 15 15 14
13 12 11 10 9 8 9 8 8 8 4 4 9 9 8 7 4 8 15 16 16 19 20 22 24 23 22 21 18 16 16 18 21 22 21 22 23 21 20 20 18 16 14 12 11 9 7 6 5 3 3 3 1 1 3 4 3 3 3 1 1 1 2 3 5 7 8 8 8 8 9 9 10 11 12 13 14 14 15 16 16 16 17 17 17 17 17 17 17 16 16 16 16 16 16 17 16
13 11 10 10 7 7 8 7 9 10 7 7 9 7 6 7 3 1 6 14 17 18 20 22 23 21 21 20 18 18 18 17 17 19 19 21 22 21 21 19 18 16 14 13 12 10 8 7 6 4 3 2 1 1 2 3 4 3 2 0 2 3 5 7 8 9 9 9 9 10 10 11 11 12 13 14 14 15 16 16 16 17 17 17 17 17 17 17 17 17 17 17 17 17 17 17 18
11 10 10 10 9 6 4 1 2 6 7 7 9 5 1 2 3 1 3 11 17 18 20 23 23 22 21 20 21 21 19 17 17 18 19 20 20 18 19 19 19 17 14 13 11 9 8 6 5 3 2 1 0 2 3 3 3 3 1 2 4 6 8 9 9 10 10 10 11 11 12 12 13 14 14 14 15 16 16 16 17 17 17 17 17 17 18 17 17 17 17 18 18 18 18 19 19
8 10 10 7 7 5 5 3 5 5 6 7 8 6 3 4 4 4 6 11 16 17 20 23 23 23 22 21 23 23 21 19 19 19 20 20 19 17 17 18 17 15 13 12 11 9 7 5 4 2 2 3 2 1 2 1 1 1 3 5 7 9 10 10 10 11 12 12 13 13 13 14 14 15 15 15 16 16 16 17 17 17 18 18 18 18 18 18 18 18 18 19 19 19 19 20 20
7 9 10 6 2 3 5 5 5 6 7 5 8 10 8 7 5 7 11 14 15 16 18 22 23 24 24 23 23 22 20 20 19 19 20 19 19 18 18 16 15 13 12 11 10 9 7 6 5 4 3 4 5 3 2 4 5 5 6 8 9 11 12 12 12 13 14 14 14 15 15 15 15 15 15 16 16 16 17 17 18 18 18 18 19 19 19 19 19 19 20 21 20 21 22 22 22
6 8 11 8 5 6 7 6 6 9 8 5 8 12 10 9 7 10 15 16 17 19 18 19 23 25 25 24 23 22 21 21 20 20 20 20 18 18 18 17 15 14 13 12 11 9 8 7 6 5 3 3 4 5 5 6 7 7 9 11 12 13 13 14 14 15 15 15 16 16 16 16 16 15 15 15 16 16 17 17 18 18 18 19 19 19 19 20 21 21 22 22 22 23 24 24 24
7 8 11 9 7 7 8 7 5 7 8 6 8 9 8 8 8 13 18 19 21 22 20 20 23 27 27 26 25 25 24 23 22 22 21 20 19 18 18 17 17 16 14 13 11 10 9 6 4 4 3 3 6 6 6 7 8 9 10 12 14 16 16 16 16 16 16 16 16 16 16 16 15 15 15 15 16 16 17 17 18 18 19 20 20 21 21 22 23 23 23 24 24 25 25 25 26
9 9 10 10 6 3 5 8 7 6 7 6 7 6 6 6 8 13 19 20 21 23 22 21 25 29 29 27 27 26 24 23 24 23 22 21 19 20 20 18 17 17 14 13 11 10 7 4 4 3 3 4 7 7 7 8 8 10 12 14 16 17 17 17 17 16 16 17 16 16 16 16 15 16 16 16 16 16 17 18 18 20 20 21 21 22 23 23 24 24 24 25 25 26 25 25 26
12 9 9 11 8 5 6 8 7 7 6 5 6 6 5 5 7 12 17 17 19 23 22 21 26 30 29 28 28 27 25 25 25 23 23 22 21 21 22 20 18 16 14 13 12 9 6 5 5 3 2 4 8 8 8 8 9 11 14 16 18 19 18 17 17 17 17 17 16 16 16 16 16 16 16 16 17 17 18 19 20 21 21 22 22 23 23 24 24 24 25 25 25 25 25 25 25
Wind_Direction
290 291 296 300 313 319 297 312 297 257 282 286 288 290 292 315 332 302 291 297 297 74 346 295 257 238 238 294 254 95 32 11 7 5 45 101 142 149 152 157 154 153 156 164 166 162 164 169 163 166 168 156 145 136 136 137 136 135 129 124 122 121 122 122 124 124 122 119 114 110 107 106 106 106 105 103 103 104 102 98 96 96 96 98 98 98 96 93 94 94 88 76 65 60 54 48 49
282 287 296 300 303 298 277 285 290 274 262 271 277 276 292 305 296 294 298 314 323 73 322 272 214 216 239 305 275 213 52 44 55 79 97 126 139 142 153 155 152 152 157 164 165 162 165 167 163 168 170 160 147 138 135 137 138 137 130 127 126 124 122 120 122 122 122 119 114 111 108 109 108 109 107 105 107 105 103 101 100 100 98 100 98 95 92 88 95 94 80 66 55 47 40 37 38
272 279 290 298 279 274 263 240 270 276 267 268 269 240 275 289 291 311 353 337 104 131 174 161 194 192 228 243 226 229 82 71 84 99 114 131 136 143 152 151 150 149 157 164 160 162 167 165 163 166 173 163 150 142 134 137 142 140 135 132 132 128 125 122 122 123 122 118 114 110 109 110 111 112 109 107 108 105 104 103 103 102 99 100 97 95 89 84 95 89 65 51 40 35 34 35 32
264 265 254 264 254 247 245 241 259 271 267 269 278 227 252 282 298 337 66 130 127 155 179 180 192 162 252 240 153 101 100 95 101 112 125 138 149 151 149 148 146 146 156 159 153 159 168 166 162 166 172 163 152 141 132 136 141 140 136 134 134 131 129 127 126 124 121 117 113 110 111 113 114 113 110 109 107 105 104 103 105 102 99 100 98 97 93 91 95 74 44 34 33 43 43 39 34
254 256 230 234 254 257 253 257 261 259 261 268 277 262 269 287 304 2 131 135 136 190 189 199 201 161 233 19 24 179 104 103 115 120 128 138 153 154 150 146 143 147 152 152 149 158 169 167 161 165 166 163 153 138 132 135 139 136 131 131 129 128 128 128 128 125 120 118 115 114 116 117 117 113 110 109 107 106 106 104 103 99 96 96 97 95 94 97 90 44 26 30 47 60 52 47 43
225 235 212 216 249 266 256 255 254 253 255 256 266 273 283 296 308 108 151 148 180 217 192 212 221 174 187 77 49 75 102 117 124 128 133 140 153 155 150 143 145 148 147 149 150 159 168 166 163 164 160 162 153 138 133 132 134 131 128 130 130 130 129 129 130 124 120 122 119 118 120 122 119 115 112 110 108 105 105 104 102 101 98 95 99 98 93 93 48 13 16 40 65 65 61 59 55
191 209 194 205 227 221 246 254 256 261 255 244 256 274 284 282 237 201 188 188 195 192 205 218 209 187 154 137 109 75 108 121 125 137 141 146 153 155 148 143 150 149 147 151 151 160 167 166 165 163 160 163 152 140 132 131 132 130 132 133 134 134 132 132 130 124 124 126 123 121 122 126 124 121 116 112 109 105 104 105 105 106 103 103 108 99 72 316 342 4 33 67 78 73 73 71 63
186 211 204 225 233 206 242 254 254 263 255 223 248 270 277 203 187 217 217 217 207 186 204 199 205 212 136 145 136 98 117 117 134 143 141 147 150 152 148 146 150 149 148 152 161 166 166 166 167 163 163 162 151 139 130 131 132 132 136 137 139 137 135 136 131 126 127 127 129 128 128 131 130 126 121 118 114 111 112 109 112 112 112 131 270 318 339 5 48 73 81 88 87 81 82 79 72
192 213 210 237 249 231 244 254 253 253 244 230 241 246 236 219 223 238 235 229 220 212 216 191 211 217 141 137 113 117 130 124 139 142 143 146 148 149 148 150 150 149 149 157 170 167 165 167 166 166 165 163 151 137 133 133 134 138 142 143 145 141 139 141 137 130 128 130 134 135 137 135 132 131 129 127 121 118 119 118 128 144 195 317 24 35 45 61 81 90 97 98 92 88 86 82 79
198 216 226 235 247 248 247 253 251 243 240 241 240 236 234 229 239 245 242 238 226 227 220 187 219 213 143 134 115 126 137 134 139 140 145 147 150 150 145 149 150 149 155 163 168 165 166 166 165 168 167 165 150 135 135 136 137 142 148 149 146 145 143 143 142 137 135 137 141 143 144 143 141 141 140 135 126 121 120 121 128 132 110 52 49 55 59 69 79 92 102 103 98 92 87 85 85
204 210 230 240 238 247 251 257 252 241 231 229 234 236 239 232 240 242 237 240 232 230 213 191 218 194 148 133 123 135 138 137 141 140 147 150 149 148 145 149 149 151 159 163 161 165 168 165 165 168 168 163 148 139 138 138 142 145 150 151 148 146 142 144 146 146 148 147 149 150 148 152 150 144 141 136 128 121 115 115 113 107 83 53 53 63 73 77 81 96 106 107 103 97 92 89 88
220 198 204 236 238 246 255 264 261 263 245 230 239 218 210 218 237 237 232 232 224 228 214 202 203 176 160 135 130 140 141 142 144 147 151 150 147 147 149 148 149 153 159 161 158 166 169 168 167 165 166 162 153 149 143 144 146 150 153 150 148 146 141 144 148 150 155 155 156 156 153 152 148 143 138 132 122 110 107 111 107 99 90 72 66 75 87 92 91 102 109 111 107 101 97 93 88
226 207 205 234 244 253 256 264 264 274 264 238 215 150 151 232 243 238 236 229 217 220 212 203 192 179 165 125 136 144 142 150 153 155 153 149 148 147 147 145 148 153 159 160 156 162 169 173 172 168 168 167 165 159 152 154 155 158 155 149 148 146 141 139 144 148 153 159 159 158 157 148 147 142 132 127 113 103 102 107 107 101 95 79 69 78 95 109 108 109 113 114 111 107 102 95 87
220 217 225 238 239 252 250 257 254 256 254 169 130 132 176 265 259 245 239 233 217 213 208 196 192 189 163 128 146 156 152 160 160 156 154 149 145 142 142 142 147 153 156 158 157 159 165 171 174 175 173 170 168 165 162 161 160 160 155 150 146 143 143 140 142 144 147 153 150 145 144 145 150 145 138 128 111 108 108 106 103 95 85 70 62 71 94 120 123 120 122 118 115 110 105 97 87
214 215 231 245 235 240 235 242 251 254 238 134 124 113 290 273 252 245 232 231 216 202 197 180 190 196 182 182 167 162 162 164 162 155 151 146 142 140 139 142 149 155 156 157 158 157 159 162 168 174 174 170 169 170 169 166 161 156 153 150 145 141 142 142 144 146 147 144 137 130 112 95 124 139 142 131 121 118 114 109 97 88 77 65 59 64 90 123 135 138 141 136 124 112 105 96 85
211 212 220 239 235 233 218 218 231 244 187 124 122 48 309 282 224 246 231 230 207 177 184 175 187 202 198 196 156 156 159 157 161 153 146 143 139 137 139 147 150 155 159 159 159 158 156 158 164 170 170 172 180 179 165 162 161 154 152 150 143 137 142 151 151 146 143 137 136 134 107 85 87 94 84 94 135 127 122 118 103 96 91 77 65 65 86 122 145 158 167 171 158 126 105 88 80
199 211 221 229 230 229 208 201 210 228 138 126 117 5 313 307 216 247 227 223 203 174 187 175 176 186 178 160 140 150 153 152 157 148 143 140 136 137 144 153 153 156 160 160 161 160 158 163 167 169 173 178 184 176 150 151 158 151 149 150 144 141 151 154 147 131 125 147 151 141 121 107 106 96 95 117 125 106 120 133 121 115 105 99 84 76 75 115 154 178 188 195 195 188 103 65 61
189 208 220 223 228 225 206 200 199 186 140 133 86 357 319 314 263 222 190 200 194 173 176 161 145 110 112 128 135 145 148 151 152 146 145 141 142 144 149 157 157 159 159 160 163 162 163 167 167 171 180 179 173 159 139 147 149 141 141 146 146 148 147 133 130 126 122 165 157 139 136 118 108 107 117 130 112 104 146 164 133 128 121 117 104 92 70 107 172 201 206 205 208 216 147 67 343
200 214 218 228 234 204 180 206 207 222 209 32 346 346 319 308 275 197 188 186 181 172 168 163 142 118 122 132 140 146 145 148 148 149 149 146 151 151 152 157 158 162 162 160 161 165 166 164 170 179 181 167 155 145 136 140 137 135 136 140 147 152 139 127 145 153 154 180 161 136 111 96 85 84 85 82 83 96 135 164 143 141 138 125 121 116 98 95 190 216 218 214 217 227 171 142 249
211 222 224 232 228 158 181 214 224 234 285 318 325 325 309 299 219 194 195 179 179 183 173 173 162 143 145 145 147 150 148 149 149 153 152 151 157 155 155 156 157 163 163 159 159 166 167 169 177 177 166 147 145 142 136 140 137 134 131 135 146 151 142 145 165 164 168 165 134 108 86 76 73 73 68 63 54 44 44 64 165 172 162 141 135 114 98 41 335 235 231 223 220 214 188 187 196
208 215 232 240 198 202 203 206 222 240 297 304 311 313 305 246 179 199 190 177 185 192 178 179 171 154 152 151 151 152 150 150 151 155 154 153 156 156 158 155 156 161 161 159 160 168 171 173 173 157 144 140 142 139 139 141 135 129 133 147 149 142 140 146 158 154 146 128 108 92 80 78 82 87 90 92 90 50 30 341 331 307 196 172 150 108 113 21 27 343 274 229 213 193 195 203 196
210 218 236 249 190 216 199 188 218 246 283 289 289 303 325 168 211 203 191 184 182 187 172 172 163 152 154 154 152 152 151 152 153 157 156 154 156 157 156 152 155 158 157 159 163 169 169 164 156 145 141 140 136 137 143 136 129 131 139 146 137 129 133 131 128 124 120 110 102 99 96 102 107 119 115 116 136 140 143 334 338 347 349 329 297 192 209 125 75 358 300 241 220 207 206 215 213
221 221 226 227 218 221 184 180 214 247 264 277 288 304 313 264 228 191 194 174 68 107 164 155 152 153 155 154 153 154 154 154 154 157 157 157 156 155 155 154 154 153 154 159 160 161 159 154 148 146 143 140 136 134 138 132 129 131 132 134 131 130 128 118 114 116 115 107 109 118 113 104 100 99 94 94 102 118 166 179 311 340 347 346 340 279 253 237 151 260 289 272 245 227 220 225 227
225 226 212 219 226 228 228 234 236 249 265 281 294 292 279 262 229 179 183 134 64 96 149 144 145 150 153 152 154 155 155 155 154 156 157 157 155 153 153 153 151 150 154 155 151 151 151 147 144 146 143 138 133 128 130 124 120 118 116 121 127 126 121 120 123 125 121 113 119 121 113 113 102 80 56 29 27 270 251 232 265 307 305 333 340 316 287 262 244 251 266 280 259 236 232 235 233
223 230 209 211 219 222 231 241 243 252 266 274 276 272 268 255 207 162 158 123 96 129 139 141 142 148 152 152 153 154 155 153 152 155 154 154 155 152 151 151 149 149 153 151 148 149 148 146 143 141 139 134 130 130 129 121 121 123 118 117 118 119 124 130 130 124 115 110 117 121 126 136 104 45 331 316 310 284 284 276 273 294 293 303 309 310 306 273 258 259 255 254 254 242 241 246 245
216 224 222 212 212 212 221 229 239 248 256 262 255 252 260 204 172 137 123 124 122 131 141 145 146 149 151 151 152 153 153 152 153 154 151 154 154 153 152 150 148 150 152 149 147 147 147 146 140 137 138 134 132 131 127 126 134 138 132 130 123 118 126 126 117 117 118 116 117 119 126 120 25 325 299 280 283 285 289 287 283 287 294 297 286 291 300 296 279 262 254 245 248 251 247 251 254
204 220 225 227 226 218 220 229 237 243 242 241 242 230 130 161 178 140 122 133 134 138 144 149 149 151 150 149 151 151 149 149 149 146 145 151 152 154 156 150 149 152 152 148 147 149 146 143 139 139 140 137 137 134 131 135 139 136 133 136 131 126 130 124 125 138 140 137 133 104 46 339 329 315 309 299 289 294 302 292 275 268 277 283 287 292 293 293 289 278 273 262 255 255 252 251 255
186 214 221 228 233 230 228 233 231 230 231 225 225 187 138 167 184 123 131 144 144 143 144 149 149 149 149 146 144 143 137 134 142 148 151 153 154 157 155 153 155 153 151 150 151 151 146 143 139 135 137 139 139 137 137 140 139 135 137 139 137 139 136 129 134 141 141 143 120 70 345 337 330 318 307 300 296 295 298 298 286 262 260 274 296 305 300 296 292 289 288 285 280 271 263 259 260
208 207 225 216 218 229 223 222 220 217 218 203 202 180 149 153 130 119 132 138 135 133 135 141 140 139 142 142 142 141 136 131 130 134 141 141 146 155 154 156 156 151 153 152 151 151 147 145 140 136 143 144 140 140 142 143 142 142 141 139 143 142 138 142 152 155 147 130 90 19 349 359 356 350 337 310 289 279 295 315 315 300 279 285 296 297 296 299 297 292 292 292 288 283 278 273 269
213 210 241 208 199 219 209 205 206 206 202 187 199 194 146 125 115 124 133 134 131 128 132 135 129 125 129 135 140 142 147 147 136 124 129 129 135 154 157 157 155 151 154 153 152 152 149 147 145 150 158 153 150 154 152 151 150 148 143 139 144 141 146 161 163 155 125 85 7 355 10 15 11 12 14 10 28 1 354 357 347 338 338 313 298 294 285 284 285 280 283 289 286 284 284 281 277
206 203 228 223 213 196 182 189 193 192 179 190 213 217 151 122 96 128 142 142 139 135 134 131 123 120 128 133 135 138 146 154 150 146 151 145 152 168 163 158 160 157 155 156 155 152 152 153 153 157 161 156 155 159 154 153 148 144 144 143 145 149 159 169 156 140 116 73 0 8 14 11 6 8 18 25 19 330 341 348 347 347 348 339 324 315 300 294 291 284 284 288 287 285 285 283 280
203 203 205 213 220 160 151 173 192 195 167 190 220 207 142 116 103 166 159 146 137 129 125 122 115 109 115 114 110 117 127 145 150 147 149 156 168 175 165 158 159 157 154 156 154 152 156 159 158 159 161 157 156 156 148 146 144 141 145 144 148 157 163 164 149 135 108 35 347 344 348 346 349 352 1 8 359 333 324 329 333 333 335 335 330 321 314 311 306 301 301 298 295 292 288 286 285
199 208 203 193 202 167 143 156 184 199 164 184 221 200 133 112 131 170 158 138 129 127 128 124 118 114 113 108 103 109 120 149 152 146 144 158 173 175 166 159 156 155 155 157 157 159 164 164 160 161 160 155 150 146 140 138 137 136 142 148 153 157 155 155 154 192 316 346 337 350 359 347 345 348 349 352 353 345 336 328 322 320 324 324 323 319 316 313 311 310 308 303 301 300 297 295 293
187 203 211 186 195 186 152 146 162 190 182 181 204 152 118 121 145 160 146 130 122 127 135 130 124 124 124 124 120 123 148 174 157 149 147 159 180 182 173 162 157 161 161 159 164 167 167 164 161 159 154 147 142 140 139 136 136 137 145 156 157 152 154 167 183 289 319 3 24 33 27 10 0 353 349 355 356 348 340 325 313 313 313 314 319 318 314 314 313 311 308 304 303 303 302 301 300
183 190 202 180 192 198 166 144 152 185 192 172 147 119 121 133 150 150 133 125 122 133 141 135 134 132 128 129 126 128 165 192 173 161 161 172 187 187 179 168 160 165 164 160 170 171 164 162 156 149 143 140 140 139 139 139 144 148 148 158 167 165 174 177 156 9 11 42 52 45 39 36 24 8 8 9 359 337 319 308 304 310 312 313 320 318 313 312 306 303 303 303 301 302 303 305 305
188 183 195 182 181 187 143 124 141 182 186 166 148 137 138 147 152 140 133 144 150 153 147 136 139 141 137 135 130 132 154 174 169 166 172 180 188 183 170 167 163 166 165 160 167 167 156 154 147 140 139 138 136 137 141 145 146 153 163 170 167 173 192 202 16 10 13 334 348 37 60 60 51 52 46 21 351 315 287 295 303 309 320 320 317 311 306 302 302 304 305 306 307 308 310 311 310
189 181 193 190 177 156 116 123 137 181 177 154 145 141 138 142 140 133 144 164 163 157 151 139 139 142 140 133 133 141 143 146 144 145 168 178 186 187 166 154 153 156 160 158 161 162 150 144 140 136 139 140 139 141 146 149 149 158 176 176 165 161 155 122 118 99 64 323 333 353 23 59 68 76 76 67 55 19 347 354 347 344 335 323 324 322 317 315 317 319 319 320 320 321 321 316 313
187 183 187 188 175 137 118 136 141 172 169 137 139 139 130 130 129 138 152 164 165 161 153 143 142 139 136 132 131 135 135 140 124 91 131 156 161 174 165 157 157 152 152 151 149 151 145 138 139 139 140 142 145 147 146 150 153 150 149 163 184 163 125 120 133 112 74 0 351 347 347 354 3 15 33 34 23 11 2 351 345 350 340 332 337 329 323 327 325 323 326 325 324 324 325 321 320
189 190 191 188 157 125 115 137 150 174 172 148 146 131 112 115 130 151 153 154 163 162 153 147 146 140 130 125 125 129 128 131 119 83 107 139 140 156 155 159 163 153 151 151 142 136 137 136 138 138 138 140 142 143 142 150 155 153 158 177 186 171 159 169 162 136 80 40 20 359 351 344 346 354 4 15 0 351 4 343 329 339 336 332 336 323 320 330 329 328 329 327 328 330 326 323 325
197 196 196 179 152 149 145 145 154 166 157 148 140 123 117 118 125 139 133 132 141 147 150 151 152 149 142 138 140 146 142 135 135 127 131 141 144 150 155 156 151 143 142 147 139 131 133 133 132 132 130 130 130 125 122 128 136 151 177 181 153 146 150 146 140 119 74 32 0 353 3 358 355 356 353 1 343 328 346 328 316 325 322 319 322 312 310 321 326 328 328 328 334 331 321 319 323
194 203 206 173 158 170 153 141 147 146 144 147 138 129 146 142 135 133 125 135 141 145 154 156 154 152 149 149 147 144 143 141 144 141 137 142 144 148 169 167 140 136 139 141 138 133 131 129 128 127 121 118 114 107 103 96 85 89 91 97 112 129 138 131 113 91 64 355 332 337 359 359 350 346 337 332 332 340 344 338 332 324 318 323 327 319 312 304 297 312 324 325 321 314 313 317 321
184 203 227 163 151 147 135 141 149 148 158 165 165 169 162 158 165 161 149 154 158 161 164 163 158 155 152 150 144 136 138 145 150 152 150 155 167 170 180 175 145 139 142 141 139 134 129 127 127 123 118 115 109 100 97 81 62 59 58 68 108 136 139 126 121 123 64 327 317 317 332 339 334 331 325 319 329 343 337 333 334 328 326 332 334 330 326 314 303 312 324 321 307 295 298 307 309
181 177 174 130 142 145 145 156 167 175 179 178 195 209 162 161 180 173 168 162 162 173 174 166 166 169 163 151 147 146 149 152 157 168 168 165 177 177 171 168 156 147 145 142 139 137 134 133 134 132 124 116 105 95 89 80 70 75 90 124 160 170 165 176 213 232 284 296 294 298 312 319 318 317 313 310 322 329 317 318 322 323 327 333 334 330 325 320 319 322 325 324 319 309 298 292 292
163 153 156 147 151 154 160 173 189 197 170 170 203 218 181 177 178 170 169 162 160 176 179 172 175 180 168 151 152 159 160 157 158 164 163 155 159 163 162 162 157 153 155 152 146 150 153 149 147 140 126 107 85 71 62 64 69 87 115 139 146 153 189 226 235 252 266 257 271 294 303 309 308 307 309 315 324 320 314 317 322 326 332 338 342 342 340 339 338 336 333 333 332 329 320 304 299
127 141 163 168 166 165 173 188 194 187 172 179 198 202 199 186 164 164 171 170 174 181 183 181 182 182 170 156 159 164 160 155 154 155 153 149 155 162 162 165 163 157 160 161 155 159 162 156 147 133 117 89 58 37 8 340 346 93 102 82 95 113 147 228 207 174 270 264 279 289 295 312 325 328 335 340 340 337 336 338 341 346 349 353 357 359 359 359 357 355 351 349 348 346 340 325 317
124 144 165 165 172 171 183 202 185 178 197 202 188 190 208 187 157 171 180 184 189 188 186 184 184 183 175 166 165 164 159 152 150 151 151 152 163 169 162 161 162 153 154 157 153 156 156 148 139 126 109 62 32 5 335 320 320 78 99 113 110 106 117 127 126 119 319 280 300 313 322 10 26 21 22 18 11 9 6 4 5 6 8 9 10 11 12 13 11 9 6 2 360 355 350 341 335
136 153 163 158 176 174 188 216 189 188 216 210 188 192 216 206 171 179 189 193 189 184 183 182 184 182 174 169 169 165 158 152 151 153 152 149 155 163 159 156 158 154 156 158 153 156 154 142 136 132 109 43 4 337 319 313 318 346 21 53 87 93 107 106 97 106 100 90 90 75 60 56 50 41 38 33 28 26 23 22 21 20 20 19 18 17 16 16 14 12 9 6 2 357 352 348 344
162 177 176 165 175 176 190 202 197 211 221 206 187 192 217 228 193 183 193 199 188 180 181 180 182 181 173 168 168 163 154 151 154 155 154 153 154 159 163 165 164 164 167 166 161 163 156 141 136 132 103 62 359 326 311 303 314 326 340 340 344 30 62 105 119 124 110 99 95 90 78 65 58 51 46 41 37 35 31 28 26 24 22 19 18 17 15 14 13 11 9 5 1 357 352 349 347
187 190 183 180 177 178 197 194 198 216 212 187 181 183 211 232 182 178 190 196 188 181 181 181 180 179 173 168 164 158 153 154 155 155 154 156 162 166 170 169 164 164 166 162 157 154 144 134 125 111 100 90 29 320 305 305 313 318 319 315 305 299 260 182 156 140 125 119 107 94 84 71 64 56 49 45 39 34 31 28 26 24 23 21 20 19 17 16 14 13 11 7 4 1 356 355 354
194 194 187 192 184 180 198 192 195 206 165 143 179 180 206 211 143 166 188 190 186 180 178 179 178 175 168 164 158 151 151 154 155 155 153 157 165 169 168 165 160 159 159 150 142 136 127 119 113 104 98 92 65 308 303 306 304 298 291 280 255 179 148 136 131 126 122 116 105 92 82 71 61 55 48 43 38 34 32 30 29 28 27 26 25 22 21 19 16 16 14 10 8 6 4 3 2
195 199 195 204 198 186 198 195 198 201 167 149 171 181 210 201 135 90 194 183 181 178 175 173 172 169 162 155 150 147 151 154 154 154 153 156 160 161 162 161 155 152 148 139 132 127 122 115 109 99 81 81 57 293 289 290 288 282 279 196 135 133 123 118 120 117 110 101 92 83 77 70 62 54 49 44 41 38 36 35 33 32 29 28 26 23 22 20 17 18 16 13 12 10 9 10 7
194 200 204 210 211 193 181 201 189 177 166 160 175 189 208 160 127 65 219 183 173 172 170 167 166 167 162 155 154 153 155 158 157 155 154 155 154 152 153 153 150 147 141 135 131 128 125 113 103 94 64 80 218 267 262 264 273 269 216 133 131 125 117 117 115 106 96 89 85 80 75 69 63 57 53 49 46 42 40 38 35 32 29 27 25 22 21 19 18 20 18 17 17 14 14 15 12
180 200 207 200 214 202 154 106 74 119 176 178 183 194 152 151 158 153 189 185 169 168 170 169 169 170 169 166 163 161 160 161 160 157 155 155 154 150 148 149 149 145 138 136 133 131 127 113 103 82 58 83 95 236 244 216 197 166 132 127 124 118 114 112 105 96 91 87 83 80 75 69 65 60 55 51 47 44 40 38 35 33 30 28 27 26 25 24 24 24 24 24 22 21 22 20 17
181 195 188 151 178 217 185 176 139 169 207 183 184 201 186 186 178 151 177 182 170 173 174 173 175 175 174 173 167 163 162 160 160 158 156 156 154 151 148 148 146 141 138 137 132 130 126 117 105 78 60 73 84 98 116 110 113 117 120 121 115 111 108 102 96 92 90 87 83 79 74 70 66 61 56 51 47 43 40 39 38 36 34 33 32 31 29 30 30 29 29 29 26 26 28 24 21
225 207 181 167 189 195 198 202 178 194 210 185 193 204 199 202 184 157 176 182 177 178 176 177 181 179 176 172 167 165 162 160 160 159 157 156 153 151 149 147 146 146 146 142 135 129 122 111 97 69 42 53 84 99 105 105 109 111 115 117 112 107 103 98 95 93 91 88 83 79 74 71 67 61 56 52 48 45 43 42 41 38 37 35 34 32 32 31 31 30 29 28 26 27 28 25 23
237 226 190 192 214 204 201 203 191 199 203 188 189 195 206 212 181 165 179 183 181 181 182 185 185 182 178 170 165 165 163 161 161 159 157 155 153 153 150 147 150 152 149 143 136 129 121 108 83 55 36 69 94 100 102 102 102 106 112 112 109 105 102 99 97 94 91 88 83 80 76 71 67 63 58 54 51 49 47 44 42 40 37 36 34 32 31 30 30 29 28 26 26 26 25 23 23
204 214 191 193 205 211 206 200 202 214 208 192 182 192 215 203 168 174 185 186 185 185 187 188 185 182 178 170 166 165 163 162 161 159 158 155 154 155 153 152 152 150 146 140 135 129 124 109 81 59 37 83 99 100 103 102 99 104 109 108 107 106 104 102 98 95 92 87 84 80 76 72 68 64 61 58 54 52 50 47 45 42 39 37 35 32 32 32 30 28 27 26 26 25 23 22 21
194 202 197 195 193 194 199 195 199 219 225 206 196 206 200 166 168 187 191 189 189 188 188 186 183 181 176 170 168 165 162 163 160 158 157 156 155 157 159 159 154 148 144 139 137 133 123 105 88 67 43 92 108 108 107 107 105 107 109 109 108 108 106 103 99 94 90 87 84 79 76 73 69 66 64 61 58 55 52 49 47 44 41 39 37 34 33 32 30 28 27 25 24 23 22 21 20